Temp
-10 -10 -10 -9 -10 -10 -10 -10 -11 -10 -10 -11 -11 -12 -11 -12 -13 -13 -13 -12 -12 -12 -12 -12 -12 -12 -12 -12 -12 -12 -12 -11
-10 -10 -10 -10 -9 -10 -10 -10 -10 -11 -10 -10 -11 -11 -11 -11 -12 -13 -13 -13 -12 -12 -12 -12 -12 -13 -12 -12 -12 -12 -12 -12
-10 -10 -10 -10 -10 -10 -10 -10 -10 -10 -11 -11 -10 -11 -11 -12 -12 -13 -12 -11 -12 -12 -12 -12 -12 -13 -12 -12 -12 -12 -12 -12
-10 -10 -10 -9 -10 -10 -10 -10 -10 -10 -11 -11 -11 -11 -11 -11 -10 -12 -12 -12 -12 -12 -12 -12 -12 -12 -12 -12 -12 -12 -12 -12
-10 -10 -10 -10 -9 -10 -10 -10 -11 -10 -10 -10 -10 -10 -11 -11 -11 -11 -12 -12 -12 -12 -12 -11 -12 -12 -12 -12 -12 -12 -12 -12
-10 -10 -10 -10 -10 -9 -10 -10 -11 -11 -10 -10 -10 -10 -11 -11 -11 -11 -11 -11 -12 -11 -11 -11 -11 -12 -12 -12 -12 -12 -12 -12
-9 -10 -10 -10 -10 -10 -10 -11 -11 -11 -11 -10 -10 -10 -11 -11 -10 -11 -11 -11 -11 -11 -11 -11 -11 -11 -12 -12 -12 -12 -12 -12
-10 -11 -10 -9 -9 -10 -10 -10 -10 -11 -10 -10 -10 -10 -11 -11 -11 -11 -11 -11 -11 -11 -11 -11 -11 -11 -12 -12 -12 -12 -12 -12
-10 -11 -10 -10 -10 -10 -10 -10 -10 -11 -11 -10 -10 -10 -11 -11 -11 -11 -11 -11 -11 -11 -11 -11 -11 -12 -12 -12 -12 -12 -12 -11
-11 -12 -12 -11 -11 -10 -11 -11 -11 -10 -10 -10 -10 -10 -11 -11 -10 -11 -11 -11 -11 -11 -12 -11 -11 -11 -12 -12 -12 -12 -12 -12
-12 -13 -12 -12 -12 -12 -12 -12 -12 -11 -11 -11 -11 -11 -11 -11 -11 -11 -11 -11 -11 -11 -11 -12 -11 -11 -12 -12 -11 -12 -12 -12
-13 -13 -13 -12 -13 -13 -13 -12 -12 -12 -12 -12 -11 -11 -12 -11 -11 -11 -11 -11 -11 -11 -11 -11 -11 -12 -12 -12 -12 -12 -12 -12
-14 -15 -14 -14 -14 -14 -14 -13 -13 -13 -13 -12 -12 -12 -12 -12 -12 -12 -12 -12 -12 -11 -12 -12 -12 -12 -12 -12 -12 -12 -12 -12
-16 -15 -15 -15 -14 -14 -14 -14 -14 -15 -14 -13 -13 -13 -13 -12 -12 -12 -12 -12 -12 -12 -12 -12 -12 -12 -12 -12 -13 -12 -13 -13
-16 -16 -15 -15 -15 -15 -14 -14 -14 -14 -14 -14 -14 -14 -14 -14 -13 -13 -13 -13 -13 -12 -12 -13 -13 -13 -13 -13 -14 -13 -13 -13
-17 -16 -16 -16 -16 -15 -15 -14 -15 -14 -14 -14 -14 -14 -14 -15 -14 -14 -13 -14 -14 -14 -14 -13 -13 -13 -13 -13 -14 -14 -14 -14
-17 -18 -18 -18 -18 -17 -16 -15 -15 -14 -14 -15 -14 -14 -14 -14 -14 -14 -14 -15 -15 -14 -14 -14 -13 -14 -14 -14 -15 -15 -15 -15
-19 -19 -19 -19 -18 -18 -18 -18 -17 -17 -16 -15 -15 -15 -15 -15 -14 -14 -14 -14 -14 -14 -14 -15 -15 -14 -15 -15 -15 -16 -16 -15
-19 -20 -20 -20 -20 -18 -18 -18 -18 -18 -17 -17 -17 -16 -16 -16 -15 -15 -15 -14 -14 -15 -15 -15 -15 -15 -15 -15 -16 -16 -15 -15
Height
5723 5724 5727 5731 5732 5734 5733 5743 5749 5752 5754 5758 5761 5764 5767 5771 5775 5778 5780 5783 5787 5790 5793 5797 5801 5802 5806 5809 5811 5814 5816 5818
5715 5716 5719 5723 5727 5729 5731 5733 5741 5745 5746 5751 5754 5758 5761 5766 5770 5772 5774 5777 5779 5782 5784 5789 5794 5797 5800 5803 5805 5808 5810 5812
5707 5709 5710 5715 5719 5723 5725 5723 5732 5736 5740 5745 5748 5752 5754 5757 5762 5765 5768 5770 5773 5775 5778 5782 5788 5790 5794 5797 5799 5802 5804 5806
5697 5700 5704 5704 5713 5715 5719 5720 5723 5728 5733 5734 5738 5741 5744 5748 5754 5758 5760 5763 5765 5769 5772 5775 5780 5782 5786 5789 5792 5795 5798 5800
5687 5689 5695 5696 5701 5707 5710 5713 5713 5719 5725 5726 5728 5734 5737 5742 5747 5753 5754 5756 5759 5761 5764 5767 5772 5776 5779 5782 5784 5787 5789 5792
5676 5679 5680 5687 5689 5695 5700 5703 5707 5708 5713 5719 5722 5724 5729 5732 5736 5740 5745 5748 5750 5753 5755 5757 5762 5767 5771 5773 5776 5779 5781 5784
5663 5668 5671 5675 5682 5685 5689 5693 5696 5699 5702 5706 5712 5715 5720 5721 5725 5730 5734 5738 5741 5744 5747 5750 5755 5758 5762 5766 5768 5770 5773 5776
5651 5655 5657 5662 5667 5676 5680 5682 5684 5689 5691 5693 5699 5706 5709 5711 5714 5720 5724 5725 5729 5735 5739 5742 5745 5749 5751 5755 5758 5762 5764 5767
5636 5641 5645 5650 5654 5659 5665 5669 5672 5676 5680 5681 5686 5694 5697 5701 5704 5709 5713 5718 5721 5723 5727 5730 5734 5739 5742 5745 5748 5751 5754 5757
5620 5627 5631 5637 5640 5646 5649 5654 5659 5662 5666 5670 5673 5680 5684 5688 5692 5697 5703 5706 5712 5716 5719 5721 5722 5726 5730 5734 5737 5741 5744 5747
5606 5611 5615 5620 5626 5630 5634 5639 5645 5650 5655 5658 5661 5666 5670 5674 5678 5683 5689 5694 5697 5703 5707 5710 5713 5716 5719 5721 5726 5730 5733 5737
5589 5595 5600 5605 5609 5615 5618 5623 5630 5635 5639 5644 5649 5653 5657 5661 5665 5669 5674 5678 5683 5689 5693 5697 5700 5705 5708 5711 5713 5717 5721 5724
5573 5578 5585 5590 5594 5598 5603 5608 5612 5619 5625 5628 5632 5637 5640 5645 5649 5653 5659 5664 5668 5673 5678 5682 5686 5690 5694 5697 5701 5703 5707 5711
5556 5561 5567 5573 5580 5585 5589 5592 5596 5600 5606 5612 5616 5621 5625 5629 5633 5637 5640 5646 5652 5657 5662 5667 5671 5674 5678 5682 5686 5689 5693 5697
5544 5548 5551 5555 5561 5569 5574 5578 5582 5587 5591 5595 5599 5603 5607 5612 5617 5621 5624 5629 5634 5640 5644 5651 5656 5660 5662 5666 5670 5674 5678 5683
5530 5534 5538 5542 5543 5549 5556 5562 5566 5570 5575 5579 5583 5588 5592 5596 5599 5605 5610 5615 5619 5624 5628 5632 5638 5644 5646 5649 5653 5658 5663 5667
5515 5520 5523 5528 5530 5535 5538 5543 5549 5552 5557 5560 5563 5571 5577 5581 5586 5589 5592 5598 5603 5608 5613 5617 5622 5628 5633 5636 5638 5640 5646 5650
5501 5506 5509 5514 5517 5523 5528 5527 5530 5537 5538 5542 5547 5551 5556 5563 5567 5572 5577 5581 5585 5590 5594 5600 5606 5611 5617 5621 5622 5627 5632 5636
5486 5490 5492 5496 5499 5503 5508 5511 5514 5518 5523 5525 5530 5534 5539 5544 5548 5553 5557 5563 5568 5572 5577 5582 5589 5594 5600 5603 5607 5612 5615 5622
Wind_Speed
35 31 29 28 30 32 37 31 32 36 39 38 36 37 34 33 28 27 28 28 26 26 29 28 28 30 27 27 24 26 27 27
37 38 29 26 26 31 33 36 30 34 38 39 39 38 37 34 31 29 26 27 29 29 30 28 27 31 30 29 27 26 29 27
37 38 39 33 28 27 30 38 31 31 33 35 38 40 41 40 37 34 32 32 32 32 32 31 28 32 33 31 30 27 28 28
36 39 39 38 31 30 30 33 34 33 30 33 37 42 43 43 38 39 38 37 35 33 34 32 31 35 34 34 33 31 30 31
38 39 40 41 36 32 32 34 42 32 32 36 38 39 41 41 39 38 40 40 39 37 36 36 35 35 35 34 35 34 36 34
40 43 46 44 43 37 36 33 36 42 38 38 39 40 38 40 42 42 42 43 44 42 41 41 38 36 36 38 37 38 38 38
44 45 46 45 44 43 39 37 38 39 41 42 41 43 38 42 42 43 43 45 44 44 44 44 39 37 38 39 40 39 39 40
45 43 46 52 49 44 44 44 43 43 44 44 43 42 43 47 47 45 47 47 46 44 42 44 44 40 41 41 42 41 41 43
54 50 50 49 51 52 50 49 47 48 49 51 46 43 45 48 51 49 47 47 47 46 46 46 46 44 44 44 45 46 46 46
58 52 50 50 51 50 52 50 52 53 56 55 53 47 47 48 51 53 53 51 50 49 48 49 49 48 46 45 45 47 48 48
57 51 48 47 47 47 50 52 50 54 55 54 57 57 54 52 51 53 54 53 54 52 51 51 51 51 49 49 48 48 48 46
57 50 46 50 51 51 45 46 53 54 57 60 60 59 60 59 58 57 56 57 58 55 55 55 55 53 52 51 50 50 50 48
48 53 57 58 54 54 48 47 48 51 57 56 62 65 66 65 64 64 63 62 61 59 56 55 55 55 55 55 54 53 51 50
42 56 48 48 49 55 58 54 52 55 58 60 61 61 64 68 69 69 67 65 64 64 62 60 60 59 59 58 57 56 54 53
47 52 56 59 50 48 48 57 55 57 58 63 63 66 66 66 68 69 71 70 69 70 69 65 62 62 64 62 59 57 55 53
40 49 47 47 47 59 59 57 60 71 62 60 65 67 67 70 69 68 70 65 64 64 63 64 60 59 59 57 58 55 56 56
52 49 45 45 39 44 48 57 66 66 72 70 74 66 65 68 67 78 69 64 62 63 64 66 68 62 60 59 56 56 58 57
56 58 61 59 56 56 56 55 49 56 63 66 66 75 72 75 68 70 79 73 69 65 67 62 60 61 50 55 54 47 49 49
64 59 55 64 67 67 64 63 61 57 57 51 55 51 49 61 73 76 79 81 73 64 65 64 61 60 59 54 52 53 51 49
Wind_Direction
264 256 253 245 243 242 249 234 231 232 233 230 231 233 236 235 234 237 239 244 243 243 245 244 240 243 243 251 257 256 255 257
258 263 253 249 245 245 247 247 235 238 240 240 239 244 245 241 239 239 236 240 242 240 241 240 240 242 246 246 248 248 253 256
261 261 260 253 250 244 248 251 243 237 243 244 243 243 241 239 234 237 243 245 244 244 245 243 238 241 246 248 249 250 253 256
253 260 259 257 250 251 248 256 252 242 237 242 240 241 241 242 244 239 244 247 250 254 254 250 242 241 241 244 247 250 252 253
248 251 253 258 257 252 249 243 248 247 244 243 247 245 247 247 247 242 243 246 249 250 250 250 249 251 246 245 246 248 248 253
242 246 249 245 254 257 250 247 243 253 250 248 248 247 247 247 246 244 243 244 246 250 250 248 245 246 250 250 247 246 249 252
251 242 248 254 250 251 251 245 244 239 241 246 246 246 243 248 247 245 243 247 248 248 249 253 250 246 247 250 254 253 254 254
252 249 249 251 253 247 252 250 242 241 244 243 243 243 242 244 246 244 244 242 245 249 250 252 253 248 247 248 251 252 253 253
252 251 251 251 252 252 245 246 247 242 239 243 242 241 242 244 247 245 243 246 244 243 246 249 251 250 248 247 247 249 250 253
255 256 253 253 253 254 254 248 245 244 245 245 244 243 242 243 244 246 247 248 248 250 250 250 249 246 246 247 249 251 251 253
259 254 248 245 258 255 251 248 243 244 244 244 245 246 243 241 242 243 245 246 247 248 251 252 252 251 249 248 248 249 251 252
244 241 243 252 255 251 250 250 248 242 239 242 244 244 242 240 240 242 243 244 246 245 247 249 251 250 250 252 252 252 252 253
252 254 253 248 246 245 249 249 246 248 245 240 239 240 241 240 240 240 242 243 244 243 241 243 247 250 250 249 251 251 254 255
247 249 255 249 249 248 251 246 240 243 246 248 244 243 243 242 241 240 239 239 242 244 242 242 242 245 248 250 250 253 256 257
262 249 247 242 235 242 245 242 248 248 248 246 245 243 244 245 243 241 240 240 241 243 246 244 243 244 243 243 247 250 253 256
231 231 233 234 233 238 235 242 245 246 245 246 243 246 245 243 242 242 241 240 239 240 242 244 243 242 246 244 239 243 249 253
246 243 246 248 252 240 231 233 237 237 237 239 234 239 245 246 250 240 236 237 242 243 244 245 246 248 246 250 250 247 246 248
273 272 270 267 268 256 252 239 243 243 237 242 245 240 237 240 245 249 249 243 248 248 240 238 239 242 241 244 242 240 243 244
280 280 280 279 280 281 275 265 273 274 253 243 237 235 242 243 243 242 245 244 247 245 243 242 240 238 235 230 233 241 248 245